Time,TemperatureF,DewpointF,PressureIn,WindDirection,WindDirectionDegrees,WindSpeedMPH,WindSpeedGustMPH,Humidity,HourlyPrecipIn,Conditions,Clouds,dailyrainin,SoftwareType,DateUTC
2013-08-08 00:01:00,75.9,71.4,29.84,West,270,0.0,0.0,86,0.00,,,0.00,WUHU216HW,2013-08-08 04:01:00,
2013-08-08 00:06:00,75.9,71.4,29.84,West,270,0.0,0.0,86,0.00,,,0.00,WUHU216HW,2013-08-08 04:06:00,
2013-08-08 00:11:00,75.9,71.7,29.84,West,270,0.0,0.0,87,0.00,,,0.00,WUHU216HW,2013-08-08 04:11:00,
2013-08-08 00:16:00,75.9,71.7,29.84,West,270,0.0,0.0,87,0.00,,,0.00,WUHU216HW,2013-08-08 04:16:00,
2013-08-08 00:21:00,75.9,71.7,29.84,West,270,0.0,0.0,87,0.00,,,0.00,WUHU216HW,2013-08-08 04:21:00,
2013-08-08 00:26:00,75.9,71.6,29.84,West,270,0.0,0.0,87,0.00,,,0.00,WUHU216HW,2013-08-08 04:26:00,
2013-08-08 00:31:00,75.7,71.6,29.84,West,270,0.0,0.0,87,0.00,,,0.00,WUHU216HW,2013-08-08 04:31:00,
2013-08-08 00:36:00,75.7,71.6,29.84,West,270,0.0,0.0,87,0.00,,,0.00,WUHU216HW,2013-08-08 04:36:00,
2013-08-08 00:41:00,75.7,71.6,29.84,West,270,0.0,0.0,87,0.00,,,0.00,WUHU216HW,2013-08-08 04:41:00,
2013-08-08 00:46:00,75.7,71.6,29.84,West,270,0.0,0.0,87,0.00,,,0.00,WUHU216HW,2013-08-08 04:46:00,
2013-08-08 00:51:00,75.7,71.6,29.84,West,270,0.0,0.0,87,0.00,,,0.00,WUHU216HW,2013-08-08 04:51:00,
2013-08-08 00:56:00,75.7,71.6,29.84,West,270,0.0,0.0,87,0.00,,,0.00,WUHU216HW,2013-08-08 04:56:00,
2013-08-08 01:02:00,75.5,71.4,29.84,West,270,0.0,0.0,87,0.00,,,0.00,WUHU216HW,2013-08-08 05:02:00,
2013-08-08 01:07:00,75.5,71.4,29.84,West,270,0.0,0.0,87,0.00,,,0.00,WUHU216HW,2013-08-08 05:07:00,
2013-08-08 01:12:00,75.3,71.2,29.84,West,270,0.0,0.0,87,0.00,,,0.00,WUHU216HW,2013-08-08 05:12:00,
2013-08-08 01:17:00,75.3,71.2,29.84,West,270,0.0,0.0,87,0.00,,,0.00,WUHU216HW,2013-08-08 05:17:00,
2013-08-08 01:22:00,75.3,71.2,29.84,West,270,0.0,0.0,87,0.00,,,0.00,WUHU216HW,2013-08-08 05:22:00,
2013-08-08 01:27:00,75.3,71.2,29.84,West,270,0.0,0.0,87,0.00,,,0.00,WUHU216HW,2013-08-08 05:27:00,
2013-08-08 01:32:00,75.0,71.2,29.84,West,270,0.0,0.0,88,0.00,,,0.00,WUHU216HW,2013-08-08 05:32:00,
2013-08-08 01:37:00,75.0,70.9,29.84,West,270,0.0,0.0,87,0.00,,,0.00,WUHU216HW,2013-08-08 05:37:00,
2013-08-08 01:42:00,75.0,71.2,29.84,West,270,0.0,0.0,88,0.00,,,0.00,WUHU216HW,2013-08-08 05:42:00,
2013-08-08 01:47:00,74.8,71.0,29.84,West,270,0.0,0.0,88,0.00,,,0.00,WUHU216HW,2013-08-08 05:47:00,
2013-08-08 01:52:00,74.8,71.0,29.84,West,270,0.0,0.0,88,0.00,,,0.00,WUHU216HW,2013-08-08 05:52:00,
2013-08-08 01:57:00,74.8,71.0,29.83,West,270,0.0,0.0,88,0.00,,,0.00,WUHU216HW,2013-08-08 05:57:00,
2013-08-08 02:02:00,74.8,71.0,29.83,West,270,0.0,0.0,88,0.00,,,0.00,WUHU216HW,2013-08-08 06:02:00,
2013-08-08 02:07:00,74.6,70.9,29.83,West,270,0.0,0.0,88,0.00,,,0.00,WUHU216HW,2013-08-08 06:07:00,
2013-08-08 02:12:00,74.4,70.7,29.83,West,270,0.0,0.0,88,0.00,,,0.00,WUHU216HW,2013-08-08 06:12:00,
2013-08-08 02:17:00,74.4,70.7,29.83,West,270,0.0,0.0,88,0.00,,,0.00,WUHU216HW,2013-08-08 06:17:00,
2013-08-08 02:22:00,74.4,70.7,29.83,West,270,0.0,0.0,88,0.00,,,0.00,WUHU216HW,2013-08-08 06:22:00,
2013-08-08 02:27:00,74.4,70.7,29.84,West,270,0.0,0.0,88,0.00,,,0.00,WUHU216HW,2013-08-08 06:27:00,
2013-08-08 02:32:00,74.3,70.5,29.84,West,270,0.0,0.0,88,0.00,,,0.00,WUHU216HW,2013-08-08 06:32:00,
2013-08-08 02:37:00,74.1,70.3,29.84,West,270,0.0,0.0,88,0.00,,,0.00,WUHU216HW,2013-08-08 06:37:00,
2013-08-08 02:42:00,73.9,70.1,29.84,West,270,0.0,0.0,88,0.00,,,0.00,WUHU216HW,2013-08-08 06:42:00,
2013-08-08 02:47:00,73.9,70.1,29.84,West,270,0.0,0.0,88,0.00,,,0.00,WUHU216HW,2013-08-08 06:47:00,
2013-08-08 02:52:00,73.9,70.1,29.84,West,270,0.0,0.0,88,0.00,,,0.00,WUHU216HW,2013-08-08 06:52:00,
2013-08-08 02:57:00,73.9,70.1,29.83,West,270,0.0,0.0,88,0.00,,,0.00,WUHU216HW,2013-08-08 06:57:00,
2013-08-08 03:02:00,73.7,70.0,29.84,West,270,0.0,0.0,88,0.00,,,0.00,WUHU216HW,2013-08-08 07:02:00,
2013-08-08 03:07:00,73.5,69.8,29.84,WNW,293,0.0,0.0,88,0.00,,,0.00,WUHU216HW,2013-08-08 07:07:00,
2013-08-08 03:12:00,73.5,69.8,29.84,WNW,293,0.0,0.0,88,0.00,,,0.00,WUHU216HW,2013-08-08 07:12:00,
2013-08-08 03:17:00,73.5,69.8,29.83,WNW,293,0.0,0.0,88,0.00,,,0.00,WUHU216HW,2013-08-08 07:17:00,
2013-08-08 03:22:00,73.4,69.6,29.84,WNW,293,0.0,0.0,88,0.00,,,0.00,WUHU216HW,2013-08-08 07:22:00,
2013-08-08 03:27:00,73.4,69.6,29.83,WNW,293,0.0,0.0,88,0.00,,,0.00,WUHU216HW,2013-08-08 07:27:00,
2013-08-08 03:32:00,73.4,69.6,29.83,WNW,293,0.0,0.0,88,0.00,,,0.00,WUHU216HW,2013-08-08 07:32:00,
2013-08-08 03:37:00,73.2,69.4,29.83,WNW,293,0.0,0.0,88,0.00,,,0.00,WUHU216HW,2013-08-08 07:37:00,
2013-08-08 03:42:00,73.2,69.4,29.83,WNW,293,0.0,0.0,88,0.00,,,0.00,WUHU216HW,2013-08-08 07:42:00,
2013-08-08 03:47:00,73.2,69.4,29.83,WNW,293,0.0,0.0,88,0.00,,,0.00,WUHU216HW,2013-08-08 07:47:00,
2013-08-08 03:52:00,73.2,69.4,29.83,WNW,293,0.0,0.0,88,0.00,,,0.00,WUHU216HW,2013-08-08 07:52:00,
2013-08-08 03:57:00,73.2,69.4,29.83,WNW,293,0.0,0.0,88,0.00,,,0.00,WUHU216HW,2013-08-08 07:57:00,
2013-08-08 04:02:00,73.2,69.4,29.83,WNW,293,0.0,0.0,88,0.00,,,0.00,WUHU216HW,2013-08-08 08:02:00,
2013-08-08 04:07:00,73.0,69.2,29.83,WNW,293,0.0,0.0,88,0.00,,,0.00,WUHU216HW,2013-08-08 08:07:00,
2013-08-08 04:12:00,73.0,69.2,29.83,WNW,293,0.0,0.0,88,0.00,,,0.00,WUHU216HW,2013-08-08 08:12:00,
2013-08-08 04:17:00,73.0,69.2,29.83,WNW,293,0.0,0.0,88,0.00,,,0.00,WUHU216HW,2013-08-08 08:17:00,
2013-08-08 04:22:00,72.8,69.2,29.83,WNW,293,0.0,0.0,88,0.00,,,0.00,WUHU216HW,2013-08-08 08:22:00,
2013-08-08 04:27:00,73.0,69.2,29.83,WNW,293,0.0,0.0,88,0.00,,,0.00,WUHU216HW,2013-08-08 08:27:00,
2013-08-08 04:32:00,73.0,69.2,29.83,WNW,293,0.0,0.0,88,0.00,,,0.00,WUHU216HW,2013-08-08 08:32:00,
2013-08-08 04:37:00,72.8,69.1,29.83,WNW,293,0.0,0.0,88,0.00,,,0.00,WUHU216HW,2013-08-08 08:37:00,
2013-08-08 04:42:00,72.8,69.1,29.83,WNW,293,0.0,0.0,88,0.00,,,0.00,WUHU216HW,2013-08-08 08:42:00,
2013-08-08 04:47:00,72.8,69.1,29.83,WNW,293,0.0,0.0,88,0.00,,,0.00,WUHU216HW,2013-08-08 08:47:00,
2013-08-08 04:52:00,72.8,69.4,29.83,WNW,293,0.0,0.0,89,0.00,,,0.00,WUHU216HW,2013-08-08 08:52:00,
2013-08-08 04:57:00,72.8,69.4,29.83,WNW,293,0.0,0.0,89,0.00,,,0.00,WUHU216HW,2013-08-08 08:57:00,
2013-08-08 05:02:00,72.8,69.4,29.83,WNW,293,0.0,0.0,89,0.00,,,0.00,WUHU216HW,2013-08-08 09:02:00,
2013-08-08 05:07:00,72.6,69.2,29.82,WNW,293,0.0,0.0,89,0.00,,,0.00,WUHU216HW,2013-08-08 09:07:00,
2013-08-08 05:12:00,72.6,69.2,29.83,WNW,293,0.0,0.0,89,0.00,,,0.00,WUHU216HW,2013-08-08 09:12:00,
2013-08-08 05:17:00,72.6,69.2,29.82,WNW,293,0.0,0.0,89,0.00,,,0.00,WUHU216HW,2013-08-08 09:17:00,
2013-08-08 05:22:00,72.6,69.2,29.82,WNW,293,0.0,0.0,89,0.00,,,0.00,WUHU216HW,2013-08-08 09:22:00,
2013-08-08 05:27:00,72.6,69.2,29.82,WNW,293,0.0,0.0,89,0.00,,,0.00,WUHU216HW,2013-08-08 09:27:00,
2013-08-08 05:32:00,72.5,69.0,29.82,WNW,293,0.0,0.0,89,0.00,,,0.00,WUHU216HW,2013-08-08 09:32:00,
2013-08-08 05:37:00,72.5,69.0,29.82,WNW,293,0.0,0.0,89,0.00,,,0.00,WUHU216HW,2013-08-08 09:37:00,
2013-08-08 05:42:00,72.5,69.0,29.82,WNW,293,0.0,0.0,89,0.00,,,0.00,WUHU216HW,2013-08-08 09:42:00,
2013-08-08 05:47:00,72.3,68.9,29.82,WNW,293,0.0,0.0,89,0.00,,,0.00,WUHU216HW,2013-08-08 09:47:00,
2013-08-08 05:52:00,72.3,68.9,29.82,WNW,293,0.0,0.0,89,0.00,,,0.00,WUHU216HW,2013-08-08 09:52:00,
2013-08-08 05:57:00,72.3,68.9,29.82,WNW,293,0.0,0.0,89,0.00,,,0.00,WUHU216HW,2013-08-08 09:57:00,
2013-08-08 06:02:00,72.1,68.7,29.82,WNW,293,0.0,0.0,89,0.00,,,0.00,WUHU216HW,2013-08-08 10:02:00,
2013-08-08 06:07:00,72.1,68.7,29.82,WNW,293,0.0,0.0,89,0.00,,,0.00,WUHU216HW,2013-08-08 10:07:00,
2013-08-08 06:12:00,72.1,68.7,29.83,WNW,293,0.0,0.0,89,0.00,,,0.00,WUHU216HW,2013-08-08 10:12:00,
2013-08-08 06:17:00,72.1,68.7,29.82,WNW,293,0.0,0.0,89,0.00,,,0.00,WUHU216HW,2013-08-08 10:17:00,
2013-08-08 06:22:00,71.9,68.5,29.83,WNW,293,0.0,0.0,89,0.00,,,0.00,WUHU216HW,2013-08-08 10:22:00,
2013-08-08 06:27:00,71.9,68.5,29.83,WNW,293,0.0,0.0,89,0.00,,,0.00,WUHU216HW,2013-08-08 10:27:00,
2013-08-08 06:32:00,71.7,68.3,29.83,WNW,293,0.0,0.0,89,0.00,,,0.00,WUHU216HW,2013-08-08 10:32:00,
2013-08-08 06:37:00,71.7,68.3,29.83,WNW,293,0.0,0.0,89,0.00,,,0.00,WUHU216HW,2013-08-08 10:37:00,
2013-08-08 06:42:00,71.7,68.3,29.83,WNW,293,0.0,0.0,89,0.00,,,0.00,WUHU216HW,2013-08-08 10:42:00,
2013-08-08 06:47:00,71.6,68.1,29.83,WNW,293,0.0,0.0,89,0.00,,,0.00,WUHU216HW,2013-08-08 10:47:00,
2013-08-08 06:52:00,71.4,68.0,29.83,WNW,293,0.0,0.0,89,0.00,,,0.00,WUHU216HW,2013-08-08 10:52:00,
2013-08-08 07:02:00,71.2,67.8,29.83,WNW,293,0.0,0.0,89,0.00,,,0.00,WUHU216HW,2013-08-08 11:02:00,
2013-08-08 07:07:00,71.2,67.8,29.83,WNW,293,0.0,0.0,89,0.00,,,0.00,WUHU216HW,2013-08-08 11:07:00,
2013-08-08 07:12:00,71.2,67.8,29.83,WNW,293,0.0,0.0,89,0.00,,,0.00,WUHU216HW,2013-08-08 11:12:00,
2013-08-08 07:17:00,71.2,67.8,29.83,WNW,293,0.0,0.0,89,0.00,,,0.00,WUHU216HW,2013-08-08 11:17:00,
2013-08-08 07:22:00,71.2,67.8,29.83,WNW,293,0.0,0.0,89,0.00,,,0.00,WUHU216HW,2013-08-08 11:22:00,
2013-08-08 07:27:00,71.2,67.8,29.83,WNW,293,0.0,0.0,89,0.00,,,0.00,WUHU216HW,2013-08-08 11:27:00,
2013-08-08 07:32:00,71.0,67.6,29.83,WNW,293,0.0,0.0,89,0.00,,,0.00,WUHU216HW,2013-08-08 11:32:00,
2013-08-08 07:37:00,70.8,67.4,29.83,WNW,293,0.0,0.0,89,0.00,,,0.00,WUHU216HW,2013-08-08 11:37:00,
2013-08-08 07:42:00,70.8,67.4,29.84,WNW,293,0.0,0.0,89,0.00,,,0.00,WUHU216HW,2013-08-08 11:42:00,
2013-08-08 07:47:00,70.8,67.4,29.84,WNW,293,0.0,0.0,89,0.00,,,0.00,WUHU216HW,2013-08-08 11:47:00,
2013-08-08 07:52:00,70.8,67.4,29.83,WNW,293,0.0,0.0,89,0.00,,,0.00,WUHU216HW,2013-08-08 11:52:00,
2013-08-08 07:57:00,70.7,67.2,29.83,WNW,293,0.0,0.0,89,0.00,,,0.00,WUHU216HW,2013-08-08 11:57:00,
2013-08-08 08:02:00,70.7,67.2,29.83,WNW,293,0.0,0.0,89,0.00,,,0.00,WUHU216HW,2013-08-08 12:02:00,
2013-08-08 08:07:00,70.5,67.1,29.83,WNW,293,0.0,0.0,89,0.00,,,0.00,WUHU216HW,2013-08-08 12:07:00,
2013-08-08 08:12:00,70.7,67.2,29.83,WNW,293,0.0,0.0,89,0.00,,,0.00,WUHU216HW,2013-08-08 12:12:00,
2013-08-08 08:17:00,70.7,67.2,29.83,West,270,0.0,0.0,89,0.00,,,0.00,WUHU216HW,2013-08-08 12:17:00,
2013-08-08 08:23:00,70.8,67.8,29.83,West,270,0.0,0.0,90,0.00,,,0.00,WUHU216HW,2013-08-08 12:23:00,
2013-08-08 08:28:00,70.8,67.8,29.84,WNW,293,0.0,0.0,90,0.00,,,0.00,WUHU216HW,2013-08-08 12:28:00,
2013-08-08 08:33:00,71.0,68.0,29.84,West,270,0.0,0.0,90,0.00,,,0.00,WUHU216HW,2013-08-08 12:33:00,
2013-08-08 08:38:00,71.2,68.1,29.85,West,270,0.0,0.0,90,0.00,,,0.00,WUHU216HW,2013-08-08 12:38:00,
2013-08-08 08:43:00,71.2,68.1,29.85,West,270,0.0,0.0,90,0.00,,,0.00,WUHU216HW,2013-08-08 12:43:00,
2013-08-08 08:48:00,71.2,68.1,29.85,West,270,0.0,0.0,90,0.00,,,0.00,WUHU216HW,2013-08-08 12:48:00,
2013-08-08 08:53:00,71.4,68.3,29.85,West,270,0.0,0.0,90,0.00,,,0.00,WUHU216HW,2013-08-08 12:53:00,
2013-08-08 08:58:00,71.4,68.3,29.85,West,270,0.0,0.0,90,0.00,,,0.00,WUHU216HW,2013-08-08 12:58:00,
2013-08-08 09:03:00,71.7,68.7,29.85,West,270,0.0,0.0,90,0.00,,,0.00,WUHU216HW,2013-08-08 13:03:00,
2013-08-08 09:13:00,71.9,68.9,29.85,SSW,203,0.0,0.0,90,0.00,,,0.00,WUHU216HW,2013-08-08 13:13:00,
2013-08-08 09:18:00,72.3,69.2,29.85,SSW,203,0.0,0.0,90,0.00,,,0.00,WUHU216HW,2013-08-08 13:18:00,
2013-08-08 09:23:00,72.5,69.4,29.85,SSW,203,0.0,0.0,90,0.00,,,0.00,WUHU216HW,2013-08-08 13:23:00,
2013-08-08 09:28:00,72.6,69.6,29.86,SSW,203,0.0,0.0,90,0.00,,,0.00,WUHU216HW,2013-08-08 13:28:00,
2013-08-08 09:33:00,72.8,69.8,29.86,SSW,203,0.0,0.0,90,0.00,,,0.00,WUHU216HW,2013-08-08 13:33:00,
2013-08-08 09:38:00,73.2,70.1,29.86,SSW,203,0.0,0.0,90,0.00,,,0.00,WUHU216HW,2013-08-08 13:38:00,
2013-08-08 09:43:00,73.2,70.1,29.86,SSW,203,0.0,0.0,90,0.00,,,0.00,WUHU216HW,2013-08-08 13:43:00,
2013-08-08 09:48:00,73.5,70.5,29.86,SSW,203,0.0,0.0,90,0.00,,,0.00,WUHU216HW,2013-08-08 13:48:00,
2013-08-08 09:53:00,73.7,70.7,29.86,SSW,203,0.0,0.0,90,0.00,,,0.00,WUHU216HW,2013-08-08 13:53:00,
2013-08-08 09:58:00,73.9,70.8,29.86,SSW,203,0.0,0.0,90,0.00,,,0.00,WUHU216HW,2013-08-08 13:58:00,
2013-08-08 10:03:00,74.4,71.7,29.86,NNW,338,0.0,0.0,91,0.00,,,0.00,WUHU216HW,2013-08-08 14:03:00,
2013-08-08 10:08:00,74.4,71.7,29.86,ESE,113,0.0,0.0,91,0.00,,,0.00,WUHU216HW,2013-08-08 14:08:00,
2013-08-08 10:13:00,74.8,71.7,29.86,ESE,113,0.0,0.0,90,0.00,,,0.00,WUHU216HW,2013-08-08 14:13:00,
2013-08-08 10:18:00,75.0,71.9,29.86,ESE,113,0.0,0.0,90,0.00,,,0.00,WUHU216HW,2013-08-08 14:18:00,
2013-08-08 10:23:00,75.3,72.3,29.87,SSE,158,1.7,1.7,90,0.00,,,0.00,WUHU216HW,2013-08-08 14:23:00,
2013-08-08 10:28:00,75.9,72.8,29.86,SSE,158,0.0,1.7,90,0.00,,,0.00,WUHU216HW,2013-08-08 14:28:00,
2013-08-08 10:33:00,76.2,73.2,29.86,SSW,203,0.0,1.7,90,0.00,,,0.00,WUHU216HW,2013-08-08 14:33:00,
2013-08-08 10:38:00,76.6,73.2,29.86,SSE,158,0.0,0.0,89,0.00,,,0.00,WUHU216HW,2013-08-08 14:38:00,
2013-08-08 10:43:00,76.8,73.4,29.87,ESE,113,0.0,0.0,89,0.00,,,0.00,WUHU216HW,2013-08-08 14:43:00,
2013-08-08 10:48:00,77.1,73.7,29.86,ESE,113,0.0,0.0,89,0.00,,,0.00,WUHU216HW,2013-08-08 14:48:00,
2013-08-08 10:53:00,77.5,74.1,29.86,SSW,203,0.0,0.0,89,0.00,,,0.00,WUHU216HW,2013-08-08 14:53:00,
2013-08-08 10:58:00,77.5,73.7,29.86,SSW,203,0.0,0.0,88,0.00,,,0.00,WUHU216HW,2013-08-08 14:58:00,
2013-08-08 11:03:00,77.7,73.9,29.87,SSE,158,0.0,0.0,88,0.00,,,0.00,WUHU216HW,2013-08-08 15:03:00,
2013-08-08 11:08:00,78.0,73.9,29.87,SSE,158,0.0,0.0,87,0.00,,,0.00,WUHU216HW,2013-08-08 15:08:00,
2013-08-08 11:13:00,78.2,74.1,29.87,SSE,158,0.0,0.0,87,0.00,,,0.00,WUHU216HW,2013-08-08 15:13:00,
2013-08-08 11:18:00,78.6,74.4,29.88,SSW,203,5.1,5.1,87,0.00,,,0.00,WUHU216HW,2013-08-08 15:18:00,
2013-08-08 11:23:00,78.9,74.4,29.88,SE,135,0.0,5.1,86,0.00,,,0.00,WUHU216HW,2013-08-08 15:23:00,
2013-08-08 11:28:00,79.3,74.8,29.87,SSE,158,5.1,5.1,86,0.00,,,0.00,WUHU216HW,2013-08-08 15:28:00,
2013-08-08 11:33:00,79.5,74.9,29.88,West,270,0.0,5.1,86,0.00,,,0.00,WUHU216HW,2013-08-08 15:33:00,
2013-08-08 11:38:00,79.7,74.7,29.88,NNW,338,0.0,0.0,85,0.00,,,0.00,WUHU216HW,2013-08-08 15:38:00,
2013-08-08 11:43:00,79.8,74.9,29.88,WSW,248,0.0,0.0,85,0.00,,,0.00,WUHU216HW,2013-08-08 15:43:00,
2013-08-08 11:48:00,80.0,75.1,29.88,SW,225,0.0,0.0,85,0.00,,,0.00,WUHU216HW,2013-08-08 15:48:00,
2013-08-08 11:53:00,80.0,75.1,29.88,South,180,0.0,0.0,85,0.00,,,0.00,WUHU216HW,2013-08-08 15:53:00,
2013-08-08 11:58:00,80.4,75.1,29.88,SE,135,0.0,2.9,84,0.00,,,0.00,WUHU216HW,2013-08-08 15:58:00,
2013-08-08 12:03:00,80.7,75.4,29.87,SE,135,0.0,2.9,84,0.00,,,0.00,WUHU216HW,2013-08-08 16:03:00,
2013-08-08 12:08:00,80.7,75.4,29.86,NW,315,0.0,0.0,84,0.00,,,0.00,WUHU216HW,2013-08-08 16:08:00,
2013-08-08 12:13:00,81.1,75.5,29.86,West,270,0.0,0.0,83,0.00,,,0.00,WUHU216HW,2013-08-08 16:13:00,
2013-08-08 12:18:00,81.3,75.6,29.86,West,270,5.1,5.1,83,0.00,,,0.00,WUHU216HW,2013-08-08 16:18:00,
2013-08-08 12:23:00,81.3,75.6,29.87,South,180,0.0,5.1,83,0.00,,,0.00,WUHU216HW,2013-08-08 16:23:00,
2013-08-08 12:28:00,81.5,75.5,29.86,ENE,68,3.5,5.1,82,0.00,,,0.00,WUHU216HW,2013-08-08 16:28:00,
2013-08-08 12:33:00,82.0,76.0,29.86,ESE,113,0.0,3.5,82,0.00,,,0.00,WUHU216HW,2013-08-08 16:33:00,
2013-08-08 12:38:00,82.2,75.9,29.86,ESE,113,0.0,0.0,81,0.00,,,0.00,WUHU216HW,2013-08-08 16:38:00,
2013-08-08 12:43:00,82.2,75.9,29.85,East,90,0.0,0.0,81,0.00,,,0.00,WUHU216HW,2013-08-08 16:43:00,
2013-08-08 12:48:00,82.7,76.4,29.85,SE,135,0.4,0.4,81,0.00,,,0.00,WUHU216HW,2013-08-08 16:48:00,
2013-08-08 12:53:00,82.7,75.6,29.85,SE,135,0.0,6.2,79,0.00,,,0.00,WUHU216HW,2013-08-08 16:53:00,
2013-08-08 12:58:00,82.9,75.8,29.85,SSE,158,0.0,6.2,79,0.00,,,0.00,WUHU216HW,2013-08-08 16:58:00,
2013-08-08 13:03:00,83.1,75.9,29.85,SSE,158,0.0,4.0,79,0.00,,,0.00,WUHU216HW,2013-08-08 17:03:00,
2013-08-08 13:08:00,83.3,75.3,29.85,ENE,68,0.0,4.4,77,0.00,,,0.00,WUHU216HW,2013-08-08 17:08:00,
2013-08-08 13:13:00,83.6,75.6,29.85,SSE,158,0.0,4.4,77,0.00,,,0.00,WUHU216HW,2013-08-08 17:13:00,
2013-08-08 13:18:00,84.0,75.5,29.84,WSW,248,0.0,0.0,76,0.00,,,0.00,WUHU216HW,2013-08-08 17:18:00,
2013-08-08 13:23:00,84.0,75.5,29.84,North,0,0.0,0.0,76,0.00,,,0.00,WUHU216HW,2013-08-08 17:23:00,
2013-08-08 13:28:00,84.5,75.9,29.84,South,180,4.4,4.4,75,0.00,,,0.00,WUHU216HW,2013-08-08 17:28:00,
2013-08-08 13:33:00,84.7,75.5,29.84,SE,135,0.0,4.4,74,0.00,,,0.00,WUHU216HW,2013-08-08 17:33:00,
2013-08-08 13:38:00,84.9,75.7,29.84,SE,135,0.0,7.3,74,0.00,,,0.00,WUHU216HW,2013-08-08 17:38:00,
2013-08-08 13:43:00,85.2,75.6,29.84,South,180,0.0,7.3,74,0.00,,,0.00,WUHU216HW,2013-08-08 17:43:00,
2013-08-08 13:48:00,85.4,75.8,29.84,ESE,113,0.0,0.0,73,0.00,,,0.00,WUHU216HW,2013-08-08 17:48:00,
2013-08-08 13:53:00,85.6,75.6,29.83,SSW,203,0.0,0.0,72,0.00,,,0.00,WUHU216HW,2013-08-08 17:53:00,
2013-08-08 13:58:00,85.6,75.6,29.84,SSE,158,0.0,0.0,72,0.00,,,0.00,WUHU216HW,2013-08-08 17:58:00,
2013-08-08 14:03:00,85.6,75.6,29.84,SSE,158,0.6,2.0,72,0.00,,,0.00,WUHU216HW,2013-08-08 18:03:00,
2013-08-08 14:08:00,86.0,75.8,29.84,SW,225,0.0,2.0,72,0.00,,,0.00,WUHU216HW,2013-08-08 18:08:00,
2013-08-08 14:13:00,86.0,75.9,29.84,WSW,248,0.0,0.0,72,0.00,,,0.00,WUHU216HW,2013-08-08 18:13:00,
2013-08-08 14:18:00,85.8,75.4,29.84,SSE,158,0.0,0.0,71,0.00,,,0.00,WUHU216HW,2013-08-08 18:18:00,
2013-08-08 14:23:00,86.0,75.2,29.83,South,180,0.0,0.0,70,0.00,,,0.00,WUHU216HW,2013-08-08 18:23:00,
2013-08-08 14:28:00,85.8,75.0,29.83,SSE,158,0.0,0.0,70,0.00,,,0.00,WUHU216HW,2013-08-08 18:28:00,
2013-08-08 14:33:00,85.8,75.0,29.83,East,90,0.0,0.0,70,0.00,,,0.00,WUHU216HW,2013-08-08 18:33:00,
2013-08-08 14:38:00,85.8,74.5,29.83,SSE,158,4.4,4.4,69,0.00,,,0.00,WUHU216HW,2013-08-08 18:38:00,
2013-08-08 14:43:00,85.8,74.5,29.83,SSW,203,0.0,4.4,69,0.00,,,0.00,WUHU216HW,2013-08-08 18:43:00,
2013-08-08 14:48:00,86.0,75.2,29.83,NW,315,0.0,4.4,70,0.00,,,0.00,WUHU216HW,2013-08-08 18:48:00,
2013-08-08 14:53:00,86.0,74.2,29.83,South,180,0.0,6.7,68,0.00,,,0.00,WUHU216HW,2013-08-08 18:53:00,
2013-08-08 14:58:00,86.0,74.7,29.82,ESE,113,0.0,6.7,69,0.00,,,0.00,WUHU216HW,2013-08-08 18:58:00,
2013-08-08 15:03:00,86.0,74.7,29.83,South,180,4.6,4.6,69,0.00,,,0.00,WUHU216HW,2013-08-08 19:03:00,
2013-08-08 15:08:00,86.0,74.2,29.83,East,90,0.0,4.6,68,0.00,,,0.00,WUHU216HW,2013-08-08 19:08:00,
2013-08-08 15:13:00,86.1,74.4,29.83,ESE,113,0.0,0.0,68,0.00,,,0.00,WUHU216HW,2013-08-08 19:13:00,
2013-08-08 15:18:00,86.1,74.4,29.83,SSE,158,0.0,0.0,68,0.00,,,0.00,WUHU216HW,2013-08-08 19:18:00,
2013-08-08 15:23:00,86.1,74.4,29.83,SSW,203,0.0,1.7,68,0.00,,,0.00,WUHU216HW,2013-08-08 19:23:00,
2013-08-08 15:28:00,86.3,74.5,29.83,WSW,248,0.0,1.7,68,0.00,,,0.00,WUHU216HW,2013-08-08 19:28:00,
2013-08-08 15:33:00,86.3,74.5,29.83,ENE,68,0.0,0.0,68,0.00,,,0.00,WUHU216HW,2013-08-08 19:33:00,
2013-08-08 15:38:00,86.3,74.5,29.83,WNW,293,0.0,0.0,68,0.00,,,0.00,WUHU216HW,2013-08-08 19:38:00,
2013-08-08 15:43:00,86.3,74.5,29.83,SSE,158,0.0,0.0,68,0.00,,,0.00,WUHU216HW,2013-08-08 19:43:00,
2013-08-08 15:48:00,86.1,73.9,29.83,NW,315,2.4,2.4,67,0.00,,,0.00,WUHU216HW,2013-08-08 19:48:00,
2013-08-08 15:53:00,86.1,74.4,29.82,NW,315,0.0,2.4,68,0.00,,,0.00,WUHU216HW,2013-08-08 19:53:00,
2013-08-08 15:59:00,86.1,74.4,29.82,SE,135,0.0,0.0,68,0.00,,,0.00,WUHU216HW,2013-08-08 19:59:00,
2013-08-08 16:04:00,86.1,74.4,29.82,SE,135,0.0,3.1,68,0.00,,,0.00,WUHU216HW,2013-08-08 20:04:00,
2013-08-08 16:09:00,86.1,74.4,29.82,East,90,0.0,3.1,68,0.00,,,0.00,WUHU216HW,2013-08-08 20:09:00,
2013-08-08 16:14:00,86.0,74.2,29.82,ESE,113,0.0,2.2,68,0.00,,,0.00,WUHU216HW,2013-08-08 20:14:00,
2013-08-08 16:19:00,86.0,74.2,29.82,East,90,0.0,0.0,68,0.00,,,0.00,WUHU216HW,2013-08-08 20:19:00,
2013-08-08 16:24:00,85.8,74.0,29.81,SE,135,0.0,0.0,68,0.00,,,0.00,WUHU216HW,2013-08-08 20:24:00,
2013-08-08 16:29:00,85.8,74.5,29.81,SE,135,1.1,1.1,69,0.00,,,0.00,WUHU216HW,2013-08-08 20:29:00,
2013-08-08 16:34:00,85.6,74.3,29.80,ESE,113,0.0,1.1,69,0.00,,,0.00,WUHU216HW,2013-08-08 20:34:00,
2013-08-08 16:39:00,85.6,74.8,29.80,ESE,113,0.0,1.1,70,0.00,,,0.00,WUHU216HW,2013-08-08 20:39:00,
2013-08-08 16:44:00,85.8,75.0,29.80,WSW,248,0.0,0.0,70,0.00,,,0.00,WUHU216HW,2013-08-08 20:44:00,
2013-08-08 16:49:00,85.6,74.3,29.80,NE,45,0.4,0.4,69,0.00,,,0.00,WUHU216HW,2013-08-08 20:49:00,
2013-08-08 16:54:00,85.6,74.3,29.80,West,270,2.0,2.0,69,0.00,,,0.00,WUHU216HW,2013-08-08 20:54:00,
2013-08-08 16:59:00,85.6,74.3,29.80,ESE,113,0.0,2.0,69,0.00,,,0.00,WUHU216HW,2013-08-08 20:59:00,
2013-08-08 17:04:00,85.2,74.0,29.80,SE,135,0.0,2.0,69,0.00,,,0.00,WUHU216HW,2013-08-08 21:04:00,
2013-08-08 17:09:00,85.1,73.8,29.79,ENE,68,0.0,0.0,69,0.00,,,0.00,WUHU216HW,2013-08-08 21:09:00,
2013-08-08 17:14:00,85.1,74.3,29.79,ENE,68,0.0,0.0,70,0.00,,,0.00,WUHU216HW,2013-08-08 21:14:00,
2013-08-08 17:19:00,85.1,74.6,29.79,ENE,68,0.0,0.0,71,0.00,,,0.00,WUHU216HW,2013-08-08 21:19:00,
2013-08-08 17:24:00,84.9,74.9,29.79,ENE,68,0.0,0.0,72,0.00,,,0.00,WUHU216HW,2013-08-08 21:24:00,
2013-08-08 17:29:00,84.9,75.3,29.79,ENE,68,0.0,0.0,73,0.00,,,0.00,WUHU216HW,2013-08-08 21:29:00,
2013-08-08 17:34:00,84.9,75.3,29.79,ENE,68,0.0,0.0,73,0.00,,,0.00,WUHU216HW,2013-08-08 21:34:00,
2013-08-08 17:39:00,84.7,75.5,29.79,ENE,68,0.0,0.0,74,0.00,,,0.00,WUHU216HW,2013-08-08 21:39:00,
2013-08-08 17:44:00,84.5,75.3,29.79,ENE,68,0.0,0.0,74,0.00,,,0.00,WUHU216HW,2013-08-08 21:44:00,
2013-08-08 17:49:00,84.5,75.3,29.79,ENE,68,0.0,0.0,74,0.00,,,0.00,WUHU216HW,2013-08-08 21:49:00,
2013-08-08 17:54:00,84.5,75.7,29.80,ENE,68,0.0,0.0,75,0.00,,,0.00,WUHU216HW,2013-08-08 21:54:00,
2013-08-08 17:59:00,84.5,76.1,29.80,ENE,68,0.0,0.0,76,0.00,,,0.00,WUHU216HW,2013-08-08 21:59:00,
2013-08-08 18:04:00,84.5,76.1,29.80,ENE,68,0.0,0.0,76,0.00,,,0.00,WUHU216HW,2013-08-08 22:04:00,
2013-08-08 18:09:00,84.5,76.1,29.80,ENE,68,0.0,0.0,76,0.00,,,0.00,WUHU216HW,2013-08-08 22:09:00,
2013-08-08 18:14:00,84.7,76.3,29.80,ENE,68,0.0,0.0,76,0.00,,,0.00,WUHU216HW,2013-08-08 22:14:00,
2013-08-08 18:19:00,84.7,76.3,29.80,SSW,203,0.0,0.0,76,0.00,,,0.00,WUHU216HW,2013-08-08 22:19:00,
2013-08-08 18:24:00,84.7,75.9,29.80,NNW,338,0.0,3.1,75,0.00,,,0.00,WUHU216HW,2013-08-08 22:24:00,
2013-08-08 18:29:00,84.7,76.3,29.80,SW,225,0.0,3.1,76,0.00,,,0.00,WUHU216HW,2013-08-08 22:29:00,
2013-08-08 18:34:00,84.7,75.9,29.80,SW,225,0.0,0.0,75,0.00,,,0.00,WUHU216HW,2013-08-08 22:34:00,
2013-08-08 18:39:00,84.7,75.9,29.80,SW,225,0.0,0.0,75,0.00,,,0.00,WUHU216HW,2013-08-08 22:39:00,
2013-08-08 18:44:00,84.7,76.3,29.80,WNW,293,0.0,0.0,76,0.00,,,0.00,WUHU216HW,2013-08-08 22:44:00,
2013-08-08 18:49:00,84.5,76.1,29.80,WNW,293,0.0,0.0,76,0.00,,,0.00,WUHU216HW,2013-08-08 22:49:00,
2013-08-08 18:55:00,84.5,76.1,29.80,WNW,293,0.0,0.0,76,0.00,,,0.00,WUHU216HW,2013-08-08 22:55:00,
2013-08-08 19:00:00,84.3,76.3,29.79,WNW,293,0.0,0.0,77,0.00,,,0.00,WUHU216HW,2013-08-08 23:00:00,
2013-08-08 19:05:00,84.3,76.3,29.78,WNW,293,0.0,0.0,77,0.00,,,0.00,WUHU216HW,2013-08-08 23:05:00,
2013-08-08 19:10:00,84.0,75.9,29.78,WNW,293,0.0,0.0,77,0.00,,,0.00,WUHU216HW,2013-08-08 23:10:00,
2013-08-08 19:15:00,83.8,75.8,29.78,WNW,293,0.0,0.0,77,0.00,,,0.00,WUHU216HW,2013-08-08 23:15:00,
2013-08-08 19:21:00,83.8,75.8,29.78,WNW,293,0.0,0.0,77,0.00,,,0.00,WUHU216HW,2013-08-08 23:21:00,
2013-08-08 19:26:00,83.4,75.4,29.79,South,180,0.0,0.0,77,0.00,,,0.00,WUHU216HW,2013-08-08 23:26:00,
2013-08-08 19:31:00,82.9,74.5,29.79,SE,135,0.0,0.0,76,0.00,,,0.00,WUHU216HW,2013-08-08 23:31:00,
2013-08-08 19:36:00,82.2,73.4,29.79,SSE,158,0.0,1.3,75,0.00,,,0.00,WUHU216HW,2013-08-08 23:36:00,
2013-08-08 19:41:00,81.1,72.8,29.80,ESE,113,0.0,1.3,76,0.02,,,0.00,WUHU216HW,2013-08-08 23:41:00,
2013-08-08 19:46:00,80.4,72.5,29.80,ESE,113,0.0,0.0,77,0.06,,,0.04,WUHU216HW,2013-08-08 23:46:00,
2013-08-08 19:51:00,79.7,72.2,29.80,ESE,113,0.0,0.0,78,0.08,,,0.08,WUHU216HW,2013-08-08 23:51:00,
2013-08-08 19:56:00,78.6,71.9,29.80,NE,45,0.0,0.0,80,0.26,,,0.18,WUHU216HW,2013-08-08 23:56:00,
2013-08-08 20:01:00,78.0,71.7,29.81,WSW,248,0.0,0.0,81,0.26,,,0.26,WUHU216HW,2013-08-09 00:01:00,
2013-08-08 20:06:00,77.3,71.4,29.81,SSW,203,0.0,0.0,82,0.32,,,0.32,WUHU216HW,2013-08-09 00:06:00,
2013-08-08 20:11:00,76.8,70.8,29.81,SSW,203,0.0,0.0,82,0.37,,,0.36,WUHU216HW,2013-08-09 00:11:00,
2013-08-08 20:17:00,76.2,70.9,29.82,SSE,158,0.0,0.0,83,0.39,,,0.38,WUHU216HW,2013-08-09 00:17:00,
2013-08-08 20:23:00,76.1,70.9,29.82,NE,45,0.0,0.0,84,0.39,,,0.38,WUHU216HW,2013-08-09 00:23:00,
2013-08-08 20:28:00,75.7,70.5,29.82,NE,45,0.0,0.0,84,0.39,,,0.38,WUHU216HW,2013-08-09 00:28:00,
2013-08-08 20:33:00,75.3,70.2,29.82,East,90,0.0,0.0,84,0.39,,,0.38,WUHU216HW,2013-08-09 00:33:00,
2013-08-08 20:38:00,75.3,70.5,29.82,East,90,0.0,0.0,85,0.37,,,0.38,WUHU216HW,2013-08-09 00:38:00,
2013-08-08 20:43:00,75.2,70.4,29.82,East,90,0.0,0.0,85,0.32,,,0.38,WUHU216HW,2013-08-09 00:43:00,
2013-08-08 20:48:00,75.0,70.5,29.82,East,90,0.0,0.0,86,0.30,,,0.38,WUHU216HW,2013-08-09 00:48:00,
2013-08-08 20:53:00,75.0,70.5,29.82,East,90,0.0,0.0,86,0.20,,,0.38,WUHU216HW,2013-08-09 00:53:00,
2013-08-08 20:58:00,75.0,70.5,29.82,East,90,0.0,0.0,86,0.12,,,0.38,WUHU216HW,2013-08-09 00:58:00,
2013-08-08 21:03:00,75.0,70.5,29.82,East,90,0.0,0.0,86,0.06,,,0.38,WUHU216HW,2013-08-09 01:03:00,
2013-08-08 21:08:00,74.8,70.7,29.83,NE,45,0.0,0.0,87,0.04,,,0.38,WUHU216HW,2013-08-09 01:08:00,
2013-08-08 21:13:00,74.8,70.7,29.83,NE,45,0.0,0.0,87,0.00,,,0.38,WUHU216HW,2013-08-09 01:13:00,
2013-08-08 21:18:00,74.8,70.7,29.83,NE,45,0.0,0.0,87,0.00,,,0.38,WUHU216HW,2013-08-09 01:18:00,
2013-08-08 21:24:00,74.8,70.7,29.83,NE,45,0.0,0.0,87,0.00,,,0.38,WUHU216HW,2013-08-09 01:24:00,
2013-08-08 21:29:00,74.6,70.5,29.83,NE,45,0.0,0.0,87,0.00,,,0.38,WUHU216HW,2013-08-09 01:29:00,
2013-08-08 21:34:00,74.4,70.7,29.83,North,0,0.0,0.0,88,0.02,,,0.40,WUHU216HW,2013-08-09 01:34:00,
2013-08-08 21:39:00,74.4,70.7,29.83,North,0,0.0,0.0,88,0.02,,,0.40,WUHU216HW,2013-08-09 01:39:00,
2013-08-08 21:44:00,74.3,70.5,29.83,North,0,0.0,0.0,88,0.02,,,0.40,WUHU216HW,2013-08-09 01:44:00,
2013-08-08 21:49:00,74.3,70.8,29.84,North,0,0.0,0.0,89,0.02,,,0.40,WUHU216HW,2013-08-09 01:49:00,
2013-08-08 21:54:00,74.3,70.8,29.84,North,0,0.0,0.0,89,0.02,,,0.40,WUHU216HW,2013-08-09 01:54:00,
2013-08-08 21:59:00,74.1,70.7,29.84,North,0,0.0,0.0,89,0.02,,,0.40,WUHU216HW,2013-08-09 01:59:00,
2013-08-08 22:05:00,74.1,70.7,29.84,North,0,0.0,0.0,89,0.02,,,0.40,WUHU216HW,2013-08-09 02:05:00,
2013-08-08 22:10:00,74.1,70.7,29.84,North,0,0.0,0.0,89,0.02,,,0.40,WUHU216HW,2013-08-09 02:10:00,
2013-08-08 22:15:00,74.1,70.7,29.85,North,0,0.0,0.0,89,0.02,,,0.40,WUHU216HW,2013-08-09 02:15:00,
2013-08-08 22:20:00,73.9,70.5,29.85,North,0,0.0,0.0,89,0.02,,,0.40,WUHU216HW,2013-08-09 02:20:00,
2013-08-08 22:25:00,73.9,70.5,29.85,West,270,0.0,0.0,89,0.04,,,0.42,WUHU216HW,2013-08-09 02:25:00,
2013-08-08 22:30:00,73.9,70.5,29.85,NW,315,0.0,0.0,89,0.02,,,0.42,WUHU216HW,2013-08-09 02:30:00,
2013-08-08 22:35:00,73.7,70.3,29.85,NW,315,0.0,0.0,89,0.02,,,0.42,WUHU216HW,2013-08-09 02:35:00,
2013-08-08 22:40:00,73.7,70.3,29.85,WNW,293,0.0,0.0,89,0.02,,,0.42,WUHU216HW,2013-08-09 02:40:00,
2013-08-08 22:45:00,73.5,70.1,29.84,WNW,293,0.0,0.0,89,0.02,,,0.42,WUHU216HW,2013-08-09 02:45:00,
2013-08-08 22:50:00,73.2,69.8,29.84,NW,315,0.0,0.0,89,0.04,,,0.45,WUHU216HW,2013-08-09 02:50:00,
2013-08-08 22:55:00,73.2,69.8,29.85,NW,315,0.0,0.0,89,0.04,,,0.45,WUHU216HW,2013-08-09 02:55:00,
2013-08-08 23:00:00,73.2,69.8,29.84,NW,315,0.0,0.0,89,0.04,,,0.45,WUHU216HW,2013-08-09 03:00:00,
2013-08-08 23:05:00,73.0,69.6,29.85,NW,315,0.0,0.0,89,0.04,,,0.45,WUHU216HW,2013-08-09 03:05:00,
2013-08-08 23:10:00,73.0,69.9,29.85,NW,315,0.0,0.0,90,0.04,,,0.45,WUHU216HW,2013-08-09 03:10:00,
2013-08-08 23:16:00,73.0,69.9,29.85,NW,315,0.0,0.0,90,0.04,,,0.45,WUHU216HW,2013-08-09 03:16:00,
2013-08-08 23:21:00,72.8,69.8,29.85,NW,315,0.0,0.0,90,0.02,,,0.45,WUHU216HW,2013-08-09 03:21:00,
2013-08-08 23:26:00,72.6,69.6,29.85,NW,315,0.0,0.0,90,0.02,,,0.45,WUHU216HW,2013-08-09 03:26:00,
2013-08-08 23:31:00,72.6,69.6,29.85,NW,315,0.0,0.0,90,0.02,,,0.45,WUHU216HW,2013-08-09 03:31:00,
2013-08-08 23:36:00,72.6,69.6,29.85,NW,315,0.0,0.0,90,0.02,,,0.45,WUHU216HW,2013-08-09 03:36:00,
2013-08-08 23:41:00,72.6,69.6,29.84,NNW,338,0.0,0.0,90,0.02,,,0.45,WUHU216HW,2013-08-09 03:41:00,
2013-08-08 23:46:00,72.6,69.6,29.84,NNW,338,0.0,0.0,90,0.02,,,0.45,WUHU216HW,2013-08-09 03:46:00,
2013-08-08 23:51:00,72.6,69.6,29.84,NNW,338,0.0,0.0,90,0.00,,,0.45,WUHU216HW,2013-08-09 03:51:00,
2013-08-08 23:56:00,72.6,69.6,29.84,NNW,338,0.0,0.0,90,0.00,,,0.45,WUHU216HW,2013-08-09 03:56:00,